Time,TemperatureF,DewpointF,PressureIn,WindDirection,WindDirectionDegrees,WindSpeedMPH,WindSpeedGustMPH,Humidity,HourlyPrecipIn,Conditions,Clouds,dailyrainin,SoftwareType,DateUTC
2013-01-17 00:03:00,36.5,28.0,29.62,SSE,155,6.9,6.9,71,0.00,CLR,,0.00,WeatherDisplay:10.37,2013-01-17 05:03:00,
2013-01-17 00:05:00,36.5,28.0,29.62,SSE,155,6.9,6.9,71,0.00,CLR,,0.00,WeatherDisplay:10.37,2013-01-17 05:05:00,
2013-01-17 00:10:00,36.5,28.0,29.62,SSE,155,6.9,6.9,71,0.00,CLR,,0.00,WeatherDisplay:10.37,2013-01-17 05:10:00,
2013-01-17 00:15:00,36.5,28.0,29.62,SSE,155,6.9,6.9,71,0.00,CLR,,0.00,WeatherDisplay:10.37,2013-01-17 05:15:00,
2013-01-17 00:17:00,36.5,28.0,29.62,SSE,155,6.9,6.9,71,0.00,CLR,,0.00,WeatherDisplay:10.37,2013-01-17 05:17:00,
2013-01-17 00:19:00,36.7,27.8,29.62,SSE,155,6.9,6.9,70,0.00,CLR,,0.00,WeatherDisplay:10.37,2013-01-17 05:19:00,
2013-01-17 00:24:00,36.5,27.6,29.65,SSE,155,6.9,6.9,70,0.00,CLR,,0.00,WeatherDisplay:10.37,2013-01-17 05:24:00,
2013-01-17 00:31:00,36.7,27.8,29.62,SSE,155,6.9,6.9,70,0.00,CLR,,0.00,WeatherDisplay:10.37,2013-01-17 05:31:00,
2013-01-17 00:36:00,36.7,27.8,29.62,SSE,155,6.9,6.9,70,0.00,CLR,,0.00,WeatherDisplay:10.37,2013-01-17 05:36:00,
2013-01-17 00:42:00,36.7,27.8,29.62,SSE,155,6.9,6.9,70,0.00,CLR,,0.00,WeatherDisplay:10.37,2013-01-17 05:42:00,
2013-01-17 00:47:00,36.9,28.0,29.62,SSE,155,6.9,6.9,70,0.00,CLR,,0.00,WeatherDisplay:10.37,2013-01-17 05:47:00,
2013-01-17 00:53:00,36.9,27.6,29.62,SSE,155,6.9,6.9,69,0.00,CLR,,0.00,WeatherDisplay:10.37,2013-01-17 05:53:00,
2013-01-17 00:58:00,37.0,27.8,29.65,SSE,155,6.9,6.9,69,0.00,CLR,,0.00,WeatherDisplay:10.37,2013-01-17 05:58:00,
2013-01-17 01:03:00,36.9,27.3,29.65,SSE,155,6.9,6.9,68,0.00,CLR,,0.00,WeatherDisplay:10.37,2013-01-17 06:03:00,
2013-01-17 01:08:00,37.0,27.5,29.65,SSE,155,6.9,6.9,68,0.00,CLR,,0.00,WeatherDisplay:10.37,2013-01-17 06:08:00,
2013-01-17 01:13:00,37.2,27.6,29.62,SSE,155,6.9,6.9,68,0.00,CLR,,0.00,WeatherDisplay:10.37,2013-01-17 06:13:00,
2013-01-17 01:18:00,37.2,27.6,29.62,SSE,155,6.9,6.9,68,0.00,CLR,,0.00,WeatherDisplay:10.37,2013-01-17 06:18:00,
2013-01-17 01:23:00,37.2,27.6,29.62,SSE,155,6.9,6.9,68,0.00,CLR,,0.00,WeatherDisplay:10.37,2013-01-17 06:23:00,
2013-01-17 01:28:00,37.2,27.6,29.62,SSE,155,6.9,6.9,68,0.00,CLR,,0.00,WeatherDisplay:10.37,2013-01-17 06:28:00,
2013-01-17 01:33:00,37.2,27.6,29.62,SSE,155,6.9,6.9,68,0.00,CLR,,0.00,WeatherDisplay:10.37,2013-01-17 06:33:00,
2013-01-17 01:38:00,37.6,27.6,29.62,SSE,155,6.9,6.9,67,0.00,CLR,,0.00,WeatherDisplay:10.37,2013-01-17 06:38:00,
2013-01-17 01:43:00,37.8,27.8,29.62,SSE,155,6.9,6.9,67,0.00,CLR,,0.00,WeatherDisplay:10.37,2013-01-17 06:43:00,
2013-01-17 01:48:00,37.8,27.8,29.62,SSE,155,6.9,6.9,67,0.00,CLR,,0.00,WeatherDisplay:10.37,2013-01-17 06:48:00,
2013-01-17 01:53:00,37.6,27.6,29.65,SSE,155,6.9,6.9,67,0.00,CLR,,0.00,WeatherDisplay:10.37,2013-01-17 06:53:00,
2013-01-17 01:58:00,37.6,27.2,29.62,SSE,155,6.9,6.9,66,0.00,CLR,,0.00,WeatherDisplay:10.37,2013-01-17 06:58:00,
2013-01-17 02:03:00,37.8,27.4,29.62,SSE,155,6.9,6.9,66,0.00,CLR,,0.00,WeatherDisplay:10.37,2013-01-17 07:03:00,
2013-01-17 02:08:00,37.6,26.9,29.65,SSE,155,6.9,6.9,65,0.00,CLR,,0.00,WeatherDisplay:10.37,2013-01-17 07:08:00,
2013-01-17 02:13:00,37.6,26.5,29.65,SSE,155,6.9,6.9,64,0.00,CLR,,0.00,WeatherDisplay:10.37,2013-01-17 07:13:00,
2013-01-17 02:18:00,37.6,26.5,29.65,SSE,155,6.9,6.9,64,0.00,CLR,,0.00,WeatherDisplay:10.37,2013-01-17 07:18:00,
2013-01-17 02:23:00,37.6,26.1,29.65,SSE,155,6.9,6.9,63,0.00,CLR,,0.00,WeatherDisplay:10.37,2013-01-17 07:23:00,
2013-01-17 02:28:00,37.6,25.7,29.65,SSE,155,6.9,6.9,62,0.00,CLR,,0.00,WeatherDisplay:10.37,2013-01-17 07:28:00,
2013-01-17 02:34:00,37.6,25.7,29.65,SSE,155,6.9,6.9,62,0.00,CLR,,0.00,WeatherDisplay:10.37,2013-01-17 07:34:00,
2013-01-17 02:40:00,37.6,25.3,29.65,SSE,155,6.9,6.9,61,0.00,CLR,,0.00,WeatherDisplay:10.37,2013-01-17 07:40:00,
2013-01-17 02:45:00,37.6,25.3,29.65,SSE,155,6.9,6.9,61,0.00,CLR,,0.00,WeatherDisplay:10.37,2013-01-17 07:45:00,
2013-01-17 02:50:00,37.6,24.5,29.65,SSE,155,6.9,6.9,59,0.00,CLR,,0.00,WeatherDisplay:10.37,2013-01-17 07:50:00,
2013-01-17 02:55:00,37.8,24.7,29.65,SSE,155,6.9,6.9,59,0.00,CLR,,0.00,WeatherDisplay:10.37,2013-01-17 07:55:00,
2013-01-17 03:00:00,37.8,24.7,29.65,SSE,155,6.9,6.9,59,0.00,CLR,,0.00,WeatherDisplay:10.37,2013-01-17 08:00:00,
2013-01-17 03:05:00,37.6,24.1,29.65,SSE,155,6.9,6.9,58,0.00,CLR,,0.00,WeatherDisplay:10.37,2013-01-17 08:05:00,
2013-01-17 03:10:00,37.6,23.7,29.65,SSE,155,6.9,6.9,57,0.00,CLR,,0.00,WeatherDisplay:10.37,2013-01-17 08:10:00,
2013-01-17 03:15:00,37.8,23.9,29.65,SSE,155,6.9,6.9,57,0.00,CLR,,0.00,WeatherDisplay:10.37,2013-01-17 08:15:00,
2013-01-17 03:20:00,37.8,23.9,29.65,SSE,155,6.9,6.9,57,0.00,CLR,,0.00,WeatherDisplay:10.37,2013-01-17 08:20:00,
2013-01-17 03:26:00,37.6,23.3,29.65,SSE,155,6.9,6.9,56,0.00,CLR,,0.00,WeatherDisplay:10.37,2013-01-17 08:26:00,
2013-01-17 03:31:00,37.6,22.9,29.65,SSE,155,6.9,6.9,55,0.00,CLR,,0.00,WeatherDisplay:10.37,2013-01-17 08:31:00,
2013-01-17 03:36:00,37.6,22.9,29.65,SSE,155,6.9,6.9,55,0.00,CLR,,0.00,WeatherDisplay:10.37,2013-01-17 08:36:00,
2013-01-17 03:42:00,37.8,23.5,29.65,SSE,155,6.9,6.9,56,0.00,CLR,,0.00,WeatherDisplay:10.37,2013-01-17 08:42:00,
2013-01-17 03:48:00,37.8,23.5,29.65,SSE,155,6.9,6.9,56,0.00,CLR,,0.00,WeatherDisplay:10.37,2013-01-17 08:48:00,
2013-01-17 03:53:00,37.6,23.3,29.65,SSE,155,6.9,6.9,56,0.00,CLR,,0.00,WeatherDisplay:10.37,2013-01-17 08:53:00,
2013-01-17 03:58:00,37.6,23.3,29.65,SSE,155,6.9,6.9,56,0.00,CLR,,0.00,WeatherDisplay:10.37,2013-01-17 08:58:00,
2013-01-17 04:04:00,37.6,23.3,29.65,SSE,155,6.9,6.9,56,0.00,CLR,,0.00,WeatherDisplay:10.37,2013-01-17 09:04:00,
2013-01-17 04:10:00,37.6,23.7,29.65,SSE,155,6.9,6.9,57,0.00,CLR,,0.00,WeatherDisplay:10.37,2013-01-17 09:10:00,
2013-01-17 04:15:00,37.6,24.1,29.65,SSE,155,6.9,6.9,58,0.00,CLR,,0.00,WeatherDisplay:10.37,2013-01-17 09:15:00,
2013-01-17 04:20:00,37.6,24.1,29.65,SSE,155,6.9,6.9,58,0.00,CLR,,0.00,WeatherDisplay:10.37,2013-01-17 09:20:00,
2013-01-17 04:25:00,37.6,24.1,29.65,SSE,155,6.9,6.9,58,0.00,CLR,,0.00,WeatherDisplay:10.37,2013-01-17 09:25:00,
2013-01-17 04:30:00,37.6,24.1,29.65,SSE,155,6.9,6.9,58,0.00,CLR,,0.00,WeatherDisplay:10.37,2013-01-17 09:30:00,
2013-01-17 04:36:00,37.6,24.5,29.65,SSE,155,6.9,6.9,59,0.00,CLR,,0.00,WeatherDisplay:10.37,2013-01-17 09:36:00,
2013-01-17 04:42:00,37.4,24.4,29.65,SSE,155,6.9,6.9,59,0.00,CLR,,0.00,WeatherDisplay:10.37,2013-01-17 09:42:00,
2013-01-17 04:48:00,37.4,24.4,29.65,SSE,155,6.9,6.9,59,0.00,CLR,,0.00,WeatherDisplay:10.37,2013-01-17 09:48:00,
2013-01-17 04:54:00,37.6,24.9,29.65,SSE,155,6.9,6.9,60,0.00,CLR,,0.00,WeatherDisplay:10.37,2013-01-17 09:54:00,
2013-01-17 04:59:00,37.6,24.5,29.65,SSE,155,6.9,6.9,59,0.00,CLR,,0.00,WeatherDisplay:10.37,2013-01-17 09:59:00,
2013-01-17 05:04:00,37.4,24.4,29.65,SSE,155,6.9,6.9,59,0.00,CLR,,0.00,WeatherDisplay:10.37,2013-01-17 10:04:00,
2013-01-17 05:10:00,37.4,24.8,29.65,SSE,155,6.9,6.9,60,0.00,CLR,,0.00,WeatherDisplay:10.37,2013-01-17 10:10:00,
2013-01-17 05:15:00,37.4,24.8,29.65,SSE,155,6.9,6.9,60,0.00,CLR,,0.00,WeatherDisplay:10.37,2013-01-17 10:15:00,
2013-01-17 05:21:00,37.4,24.8,29.65,SSE,155,6.9,6.9,60,0.00,CLR,,0.00,WeatherDisplay:10.37,2013-01-17 10:21:00,
2013-01-17 05:26:00,37.4,24.8,29.65,SSE,155,6.9,6.9,60,0.00,CLR,,0.00,WeatherDisplay:10.37,2013-01-17 10:26:00,
2013-01-17 05:31:00,37.4,24.8,29.65,SSE,155,6.9,6.9,60,0.00,CLR,,0.00,WeatherDisplay:10.37,2013-01-17 10:31:00,
2013-01-17 05:36:00,37.4,24.8,29.65,SSE,155,6.9,6.9,60,0.00,CLR,,0.00,WeatherDisplay:10.37,2013-01-17 10:36:00,
2013-01-17 05:42:00,37.4,24.4,29.65,SSE,155,6.9,6.9,59,0.00,CLR,,0.00,WeatherDisplay:10.37,2013-01-17 10:42:00,
2013-01-17 05:48:00,37.2,23.4,29.65,SSE,155,6.9,6.9,57,0.00,CLR,,0.00,WeatherDisplay:10.37,2013-01-17 10:48:00,
2013-01-17 05:53:00,37.4,21.8,29.68,SSE,155,6.9,6.9,53,0.00,CLR,,0.00,WeatherDisplay:10.37,2013-01-17 10:53:00,
2013-01-17 05:58:00,37.4,20.0,29.68,SSE,155,6.9,6.9,49,0.00,CLR,,0.00,WeatherDisplay:10.37,2013-01-17 10:58:00,
2013-01-17 06:03:00,37.6,19.6,29.68,SSE,155,6.9,6.9,48,0.00,CLR,,0.00,WeatherDisplay:10.37,2013-01-17 11:03:00,
2013-01-17 06:08:00,37.6,18.1,29.68,SSE,155,6.9,6.9,45,0.00,CLR,,0.00,WeatherDisplay:10.37,2013-01-17 11:08:00,
2013-01-17 06:14:00,37.8,17.2,29.68,SSE,155,6.9,6.9,43,0.00,CLR,,0.00,WeatherDisplay:10.37,2013-01-17 11:14:00,
2013-01-17 06:20:00,37.8,16.7,29.68,SSE,155,6.9,6.9,42,0.00,CLR,,0.00,WeatherDisplay:10.37,2013-01-17 11:20:00,
2013-01-17 06:25:00,37.8,16.7,29.68,SSE,155,6.9,6.9,42,0.00,CLR,,0.00,WeatherDisplay:10.37,2013-01-17 11:25:00,
2013-01-17 06:30:00,37.8,16.7,29.68,SSE,155,6.9,6.9,42,0.00,CLR,,0.00,WeatherDisplay:10.37,2013-01-17 11:30:00,
2013-01-17 06:36:00,37.8,16.7,29.68,SSE,155,6.9,6.9,42,0.00,CLR,,0.00,WeatherDisplay:10.37,2013-01-17 11:36:00,
2013-01-17 06:42:00,37.6,14.2,29.68,SSE,155,6.9,6.9,38,0.00,CLR,,0.00,WeatherDisplay:10.37,2013-01-17 11:42:00,
2013-01-17 06:47:00,37.4,14.1,29.68,SSE,155,6.9,6.9,38,0.00,CLR,,0.00,WeatherDisplay:10.37,2013-01-17 11:47:00,
2013-01-17 06:52:00,37.4,14.1,29.68,SSE,155,6.9,6.9,38,0.00,CLR,,0.00,WeatherDisplay:10.37,2013-01-17 11:52:00,
2013-01-17 06:57:00,37.4,14.1,29.68,SSE,155,6.9,6.9,38,0.00,CLR,,0.00,WeatherDisplay:10.37,2013-01-17 11:57:00,
2013-01-17 07:02:00,37.6,12.4,29.71,SSE,155,6.9,6.9,35,0.00,CLR,,0.00,WeatherDisplay:10.37,2013-01-17 12:02:00,
2013-01-17 07:07:00,37.6,12.4,29.71,SSE,155,6.9,6.9,35,0.00,CLR,,0.00,WeatherDisplay:10.37,2013-01-17 12:07:00,
2013-01-17 07:12:00,37.6,12.4,29.71,SSE,155,6.9,6.9,35,0.00,CLR,,0.00,WeatherDisplay:10.37,2013-01-17 12:12:00,
2013-01-17 07:17:00,37.8,11.9,29.71,SSE,155,6.9,6.9,34,0.00,CLR,,0.00,WeatherDisplay:10.37,2013-01-17 12:17:00,
2013-01-17 07:22:00,37.8,11.9,29.71,SSE,155,6.9,6.9,34,0.00,CLR,,0.00,WeatherDisplay:10.37,2013-01-17 12:22:00,
2013-01-17 07:27:00,37.6,11.7,29.71,SSE,155,6.9,6.9,34,0.00,CLR,,0.00,WeatherDisplay:10.37,2013-01-17 12:27:00,
2013-01-17 07:32:00,37.6,11.7,29.71,SSE,155,6.9,6.9,34,0.00,CLR,,0.00,WeatherDisplay:10.37,2013-01-17 12:32:00,
2013-01-17 07:37:00,37.6,11.7,29.71,SSE,155,6.9,6.9,34,0.00,CLR,,0.00,WeatherDisplay:10.37,2013-01-17 12:37:00,
2013-01-17 07:42:00,37.8,12.5,29.74,SSE,155,6.9,6.9,35,0.00,CLR,,0.00,WeatherDisplay:10.37,2013-01-17 12:42:00,
2013-01-17 07:47:00,37.9,12.7,29.74,SSE,155,6.9,6.9,35,0.00,CLR,,0.00,WeatherDisplay:10.37,2013-01-17 12:47:00,
2013-01-17 07:52:00,37.9,12.0,29.74,SSE,155,6.9,6.9,34,0.00,CLR,,0.00,WeatherDisplay:10.37,2013-01-17 12:52:00,
2013-01-17 07:58:00,37.9,12.0,29.74,SSE,155,6.9,6.9,34,0.00,CLR,,0.00,WeatherDisplay:10.37,2013-01-17 12:58:00,
2013-01-17 08:03:00,38.1,12.2,29.74,SSE,155,6.9,6.9,34,0.00,CLR,,0.00,WeatherDisplay:10.37,2013-01-17 13:03:00,
2013-01-17 08:08:00,38.3,12.3,29.74,SSE,155,6.9,6.9,34,0.00,CLR,,0.00,WeatherDisplay:10.37,2013-01-17 13:08:00,
2013-01-17 08:13:00,38.3,13.0,29.74,SSE,155,6.9,6.9,35,0.00,CLR,,0.00,WeatherDisplay:10.37,2013-01-17 13:13:00,
2013-01-17 08:18:00,38.3,12.3,29.74,SSE,155,6.9,6.9,34,0.00,CLR,,0.00,WeatherDisplay:10.37,2013-01-17 13:18:00,
2013-01-17 08:23:00,38.7,12.7,29.77,SSE,155,6.9,6.9,34,0.00,CLR,,0.00,WeatherDisplay:10.37,2013-01-17 13:23:00,
2013-01-17 08:28:00,38.8,12.1,29.77,SSE,155,6.9,6.9,33,0.00,CLR,,0.00,WeatherDisplay:10.37,2013-01-17 13:28:00,
2013-01-17 08:33:00,38.8,12.1,29.77,SSE,155,6.9,6.9,33,0.00,CLR,,0.00,WeatherDisplay:10.37,2013-01-17 13:33:00,
2013-01-17 08:39:00,38.8,11.4,29.77,SSE,155,6.9,6.9,32,0.00,CLR,,0.00,WeatherDisplay:10.37,2013-01-17 13:39:00,
2013-01-17 08:44:00,38.8,11.4,29.77,SSE,155,6.9,6.9,32,0.00,CLR,,0.00,WeatherDisplay:10.37,2013-01-17 13:44:00,
2013-01-17 08:49:00,38.8,11.4,29.77,SSE,155,6.9,6.9,32,0.00,CLR,,0.00,WeatherDisplay:10.37,2013-01-17 13:49:00,
2013-01-17 08:54:00,39.2,10.3,29.77,SSE,155,6.9,6.9,30,0.00,CLR,,0.00,WeatherDisplay:10.37,2013-01-17 13:54:00,
2013-01-17 08:59:00,39.2,10.3,29.77,SSE,155,6.9,6.9,30,0.00,CLR,,0.00,WeatherDisplay:10.37,2013-01-17 13:59:00,
2013-01-17 09:04:00,39.4,10.5,29.77,SSE,155,6.9,6.9,30,0.00,CLR,,0.00,WeatherDisplay:10.37,2013-01-17 14:04:00,
2013-01-17 09:09:00,39.4,10.5,29.77,SSE,155,6.9,6.9,30,0.00,CLR,,0.00,WeatherDisplay:10.37,2013-01-17 14:09:00,
2013-01-17 09:14:00,39.6,10.6,29.77,SSE,155,6.9,6.9,30,0.00,CLR,,0.00,WeatherDisplay:10.37,2013-01-17 14:14:00,
2013-01-17 09:19:00,39.9,9.4,29.77,SSE,155,6.9,6.9,28,0.00,CLR,,0.00,WeatherDisplay:10.37,2013-01-17 14:19:00,
2013-01-17 09:24:00,39.9,9.4,29.77,SSE,155,6.9,6.9,28,0.00,CLR,,0.00,WeatherDisplay:10.37,2013-01-17 14:24:00,
2013-01-17 09:29:00,40.1,9.6,29.77,SSE,155,6.9,6.9,28,0.00,CLR,,0.00,WeatherDisplay:10.37,2013-01-17 14:29:00,
2013-01-17 09:34:00,40.1,9.6,29.77,SSE,155,6.9,6.9,28,0.00,CLR,,0.00,WeatherDisplay:10.37,2013-01-17 14:34:00,
2013-01-17 09:39:00,40.1,9.6,29.77,SSE,155,6.9,6.9,28,0.00,CLR,,0.00,WeatherDisplay:10.37,2013-01-17 14:39:00,
2013-01-17 09:44:00,40.5,9.9,29.77,SSE,155,6.9,6.9,28,0.00,CLR,,0.00,WeatherDisplay:10.37,2013-01-17 14:44:00,
2013-01-17 09:49:00,40.6,9.2,29.77,SSE,155,6.9,6.9,27,0.00,CLR,,0.00,WeatherDisplay:10.37,2013-01-17 14:49:00,
2013-01-17 09:54:00,40.6,9.2,29.77,SSE,155,6.9,6.9,27,0.00,CLR,,0.00,WeatherDisplay:10.37,2013-01-17 14:54:00,
2013-01-17 09:59:00,40.6,8.4,29.77,SSE,155,6.9,6.9,26,0.00,CLR,,0.00,WeatherDisplay:10.37,2013-01-17 14:59:00,
2013-01-17 10:04:00,40.3,7.2,29.77,SSE,155,6.9,6.9,25,0.00,CLR,,0.00,WeatherDisplay:10.37,2013-01-17 15:04:00,
2013-01-17 10:09:00,40.3,7.2,29.77,SSE,155,6.9,6.9,25,0.00,CLR,,0.00,WeatherDisplay:10.37,2013-01-17 15:09:00,
2013-01-17 10:14:00,40.8,8.5,29.77,SSE,155,6.9,6.9,26,0.00,CLR,,0.00,WeatherDisplay:10.37,2013-01-17 15:14:00,
2013-01-17 10:19:00,41.0,6.0,29.77,SSE,155,6.9,6.9,23,0.00,CLR,,0.00,WeatherDisplay:10.37,2013-01-17 15:19:00,
2013-01-17 10:24:00,41.0,6.0,29.77,SSE,155,6.9,6.9,23,0.00,CLR,,0.00,WeatherDisplay:10.37,2013-01-17 15:24:00,
2013-01-17 10:29:00,40.8,7.7,29.77,SSE,155,6.9,6.9,25,0.00,CLR,,0.00,WeatherDisplay:10.37,2013-01-17 15:29:00,
2013-01-17 10:35:00,40.6,7.5,29.77,SSE,155,6.9,6.9,25,0.00,CLR,,0.00,WeatherDisplay:10.37,2013-01-17 15:35:00,
2013-01-17 10:40:00,41.0,7.8,29.77,SSE,155,6.9,6.9,25,0.00,CLR,,0.00,WeatherDisplay:10.37,2013-01-17 15:40:00,
2013-01-17 10:45:00,41.0,6.0,29.77,SSE,155,6.9,6.9,23,0.00,CLR,,0.00,WeatherDisplay:10.37,2013-01-17 15:45:00,
2013-01-17 10:50:00,41.2,6.1,29.77,SSE,155,6.9,6.9,23,0.00,CLR,,0.00,WeatherDisplay:10.37,2013-01-17 15:50:00,
2013-01-17 10:55:00,41.0,4.0,29.77,SSE,155,6.9,6.9,21,0.00,CLR,,0.00,WeatherDisplay:10.37,2013-01-17 15:55:00,
2013-01-17 11:00:00,41.0,6.0,29.77,SSE,155,6.9,6.9,23,0.00,CLR,,0.00,WeatherDisplay:10.37,2013-01-17 16:00:00,
2013-01-17 11:05:00,40.8,5.8,29.77,SSE,155,6.9,6.9,23,0.00,CLR,,0.00,WeatherDisplay:10.37,2013-01-17 16:05:00,
2013-01-17 11:10:00,40.5,5.5,29.77,SSE,155,6.9,6.9,23,0.00,CLR,,0.00,WeatherDisplay:10.37,2013-01-17 16:10:00,
2013-01-17 11:15:00,40.6,7.5,29.77,SSE,155,6.9,6.9,25,0.00,CLR,,0.00,WeatherDisplay:10.37,2013-01-17 16:15:00,
2013-01-17 11:20:00,41.0,6.0,29.77,SSE,155,6.9,6.9,23,0.00,CLR,,0.00,WeatherDisplay:10.37,2013-01-17 16:20:00,
2013-01-17 11:25:00,40.8,7.7,29.77,SSE,155,6.9,6.9,25,0.00,CLR,,0.00,WeatherDisplay:10.37,2013-01-17 16:25:00,
2013-01-17 11:30:00,40.8,7.7,29.77,SSE,155,6.9,6.9,25,0.00,CLR,,0.00,WeatherDisplay:10.37,2013-01-17 16:30:00,
2013-01-17 11:35:00,41.0,7.8,29.77,SSE,155,6.9,6.9,25,0.00,CLR,,0.00,WeatherDisplay:10.37,2013-01-17 16:35:00,
2013-01-17 11:40:00,41.0,7.8,29.77,SSE,155,6.9,6.9,25,0.00,CLR,,0.00,WeatherDisplay:10.37,2013-01-17 16:40:00,
2013-01-17 11:45:00,41.0,7.8,29.77,SSE,155,6.9,6.9,25,0.00,CLR,,0.00,WeatherDisplay:10.37,2013-01-17 16:45:00,
2013-01-17 11:50:00,42.8,5.5,29.77,SSE,155,6.9,6.9,21,0.00,CLR,,0.00,WeatherDisplay:10.37,2013-01-17 16:50:00,
2013-01-17 11:55:00,42.8,4.4,29.77,SSE,155,6.9,6.9,20,0.00,CLR,,0.00,WeatherDisplay:10.37,2013-01-17 16:55:00,
2013-01-17 12:00:00,42.6,4.3,29.77,SSE,155,6.9,6.9,20,0.00,CLR,,0.00,WeatherDisplay:10.37,2013-01-17 17:00:00,
2013-01-17 12:05:00,42.6,4.3,29.77,SSE,155,6.9,6.9,20,0.00,CLR,,0.00,WeatherDisplay:10.37,2013-01-17 17:05:00,
2013-01-17 12:10:00,42.4,4.1,29.77,SSE,155,6.9,6.9,20,0.00,CLR,,0.00,WeatherDisplay:10.37,2013-01-17 17:10:00,
2013-01-17 12:15:00,42.4,4.1,29.77,SSE,155,6.9,6.9,20,0.00,CLR,,0.00,WeatherDisplay:10.37,2013-01-17 17:15:00,
2013-01-17 12:20:00,42.6,4.3,29.77,SSE,155,6.9,6.9,20,0.00,CLR,,0.00,WeatherDisplay:10.37,2013-01-17 17:20:00,
2013-01-17 12:25:00,42.4,4.1,29.77,SSE,155,6.9,6.9,20,0.00,CLR,,0.00,WeatherDisplay:10.37,2013-01-17 17:25:00,
2013-01-17 12:30:00,42.6,4.3,29.77,SSE,155,6.9,6.9,20,0.00,CLR,,0.00,WeatherDisplay:10.37,2013-01-17 17:30:00,
2013-01-17 12:35:00,42.4,4.1,29.77,SSE,155,6.9,6.9,20,0.00,CLR,,0.00,WeatherDisplay:10.37,2013-01-17 17:35:00,
2013-01-17 12:40:00,42.4,4.1,29.77,SSE,155,6.9,6.9,20,0.00,CLR,,0.00,WeatherDisplay:10.37,2013-01-17 17:40:00,
2013-01-17 12:45:00,42.4,4.1,29.77,SSE,155,6.9,6.9,20,0.00,CLR,,0.00,WeatherDisplay:10.37,2013-01-17 17:45:00,
2013-01-17 12:50:00,42.4,4.1,29.77,SSE,155,6.9,6.9,20,0.00,CLR,,0.00,WeatherDisplay:10.37,2013-01-17 17:50:00,
2013-01-17 12:55:00,42.6,4.3,29.77,SSE,155,6.9,6.9,20,0.00,CLR,,0.00,WeatherDisplay:10.37,2013-01-17 17:55:00,
2013-01-17 13:00:00,42.4,4.1,29.77,SSE,155,6.9,6.9,20,0.00,CLR,,0.00,WeatherDisplay:10.37,2013-01-17 18:00:00,
2013-01-17 13:05:00,42.3,4.0,29.77,SSE,155,6.9,6.9,20,0.00,CLR,,0.00,WeatherDisplay:10.37,2013-01-17 18:05:00,
2013-01-17 13:10:00,42.6,4.3,29.77,SSE,155,6.9,6.9,20,0.00,CLR,,0.00,WeatherDisplay:10.37,2013-01-17 18:10:00,
2013-01-17 13:15:00,42.8,4.4,29.77,SSE,155,6.9,6.9,20,0.00,CLR,,0.00,WeatherDisplay:10.37,2013-01-17 18:15:00,
2013-01-17 13:20:00,43.0,4.6,29.77,SSE,155,6.9,6.9,20,0.00,CLR,,0.00,WeatherDisplay:10.37,2013-01-17 18:20:00,
2013-01-17 13:25:00,43.0,4.6,29.77,SSE,155,6.9,6.9,20,0.00,CLR,,0.00,WeatherDisplay:10.37,2013-01-17 18:25:00,
2013-01-17 13:30:00,43.2,4.7,29.77,SSE,155,6.9,6.9,20,0.00,CLR,,0.00,WeatherDisplay:10.37,2013-01-17 18:30:00,
2013-01-17 13:35:00,43.2,4.7,29.77,SSE,155,6.9,6.9,20,0.00,CLR,,0.00,WeatherDisplay:10.37,2013-01-17 18:35:00,
2013-01-17 13:40:00,43.3,4.9,29.77,SSE,155,6.9,6.9,20,0.00,CLR,,0.00,WeatherDisplay:10.37,2013-01-17 18:40:00,
2013-01-17 13:45:00,43.5,5.0,29.77,SSE,155,6.9,6.9,20,0.00,CLR,,0.00,WeatherDisplay:10.37,2013-01-17 18:45:00,
2013-01-17 13:50:00,43.3,4.9,29.77,SSE,155,6.9,6.9,20,0.00,CLR,,0.00,WeatherDisplay:10.37,2013-01-17 18:50:00,
2013-01-17 13:55:00,43.3,4.9,29.77,SSE,155,6.9,6.9,20,0.00,CLR,,0.00,WeatherDisplay:10.37,2013-01-17 18:55:00,
2013-01-17 14:00:00,43.3,4.9,29.77,SSE,155,6.9,6.9,20,0.00,CLR,,0.00,WeatherDisplay:10.37,2013-01-17 19:00:00,
2013-01-17 14:05:00,43.3,4.9,29.77,SSE,155,6.9,6.9,20,0.00,CLR,,0.00,WeatherDisplay:10.37,2013-01-17 19:05:00,
2013-01-17 14:10:00,43.3,4.9,29.77,SSE,155,6.9,6.9,20,0.00,CLR,,0.00,WeatherDisplay:10.37,2013-01-17 19:10:00,
2013-01-17 14:15:00,43.3,4.9,29.77,SSE,155,6.9,6.9,20,0.00,CLR,,0.00,WeatherDisplay:10.37,2013-01-17 19:15:00,
2013-01-17 14:20:00,43.3,4.9,29.77,SSE,155,6.9,6.9,20,0.00,CLR,,0.00,WeatherDisplay:10.37,2013-01-17 19:20:00,
2013-01-17 14:25:00,43.2,4.7,29.77,SSE,155,6.9,6.9,20,0.00,CLR,,0.00,WeatherDisplay:10.37,2013-01-17 19:25:00,
2013-01-17 14:30:00,43.0,4.6,29.77,SSE,155,6.9,6.9,20,0.00,CLR,,0.00,WeatherDisplay:10.37,2013-01-17 19:30:00,
2013-01-17 14:35:00,43.0,4.6,29.77,SSE,155,6.9,6.9,20,0.00,CLR,,0.00,WeatherDisplay:10.37,2013-01-17 19:35:00,
2013-01-17 14:40:00,42.8,4.4,29.77,SSE,155,6.9,6.9,20,0.00,CLR,,0.00,WeatherDisplay:10.37,2013-01-17 19:40:00,
2013-01-17 14:45:00,42.8,4.4,29.77,SSE,155,6.9,6.9,20,0.00,CLR,,0.00,WeatherDisplay:10.37,2013-01-17 19:45:00,
2013-01-17 14:50:00,42.8,4.4,29.77,SSE,155,6.9,6.9,20,0.00,CLR,,0.00,WeatherDisplay:10.37,2013-01-17 19:50:00,
2013-01-17 14:55:00,43.0,4.6,29.77,SSE,155,6.9,6.9,20,0.00,CLR,,0.00,WeatherDisplay:10.37,2013-01-17 19:55:00,
2013-01-17 15:00:00,42.8,4.4,29.77,SSE,155,6.9,6.9,20,0.00,CLR,,0.00,WeatherDisplay:10.37,2013-01-17 20:00:00,
2013-01-17 15:05:00,42.4,4.1,29.77,SSE,155,6.9,6.9,20,0.00,CLR,,0.00,WeatherDisplay:10.37,2013-01-17 20:05:00,
2013-01-17 15:10:00,42.3,4.0,29.77,SSE,155,6.9,6.9,20,0.00,CLR,,0.00,WeatherDisplay:10.37,2013-01-17 20:10:00,
2013-01-17 15:15:00,42.3,4.0,29.77,SSE,155,6.9,6.9,20,0.00,CLR,,0.00,WeatherDisplay:10.37,2013-01-17 20:15:00,
2013-01-17 15:20:00,42.1,3.8,29.77,SSE,155,6.9,6.9,20,0.00,CLR,,0.00,WeatherDisplay:10.37,2013-01-17 20:20:00,
2013-01-17 15:25:00,42.1,3.8,29.77,SSE,155,6.9,6.9,20,0.00,CLR,,0.00,WeatherDisplay:10.37,2013-01-17 20:25:00,
2013-01-17 15:30:00,41.7,3.5,29.77,SSE,155,6.9,6.9,20,0.00,CLR,,0.00,WeatherDisplay:10.37,2013-01-17 20:30:00,
2013-01-17 15:35:00,41.7,3.5,29.77,SSE,155,6.9,6.9,20,0.00,CLR,,0.00,WeatherDisplay:10.37,2013-01-17 20:35:00,
2013-01-17 15:40:00,41.5,3.4,29.77,SSE,155,6.9,6.9,20,0.00,CLR,,0.00,WeatherDisplay:10.37,2013-01-17 20:40:00,
2013-01-17 15:45:00,41.5,3.4,29.77,SSE,155,6.9,6.9,20,0.00,CLR,,0.00,WeatherDisplay:10.37,2013-01-17 20:45:00,
2013-01-17 15:50:00,41.5,3.4,29.77,SSE,155,6.9,6.9,20,0.00,CLR,,0.00,WeatherDisplay:10.37,2013-01-17 20:50:00,
2013-01-17 15:55:00,41.4,3.2,29.77,SSE,155,6.9,6.9,20,0.00,CLR,,0.00,WeatherDisplay:10.37,2013-01-17 20:55:00,
2013-01-17 16:00:00,41.4,3.2,29.77,SSE,155,6.9,6.9,20,0.00,CLR,,0.00,WeatherDisplay:10.37,2013-01-17 21:00:00,
2013-01-17 16:05:00,41.4,3.2,29.77,SSE,155,6.9,6.9,20,0.00,CLR,,0.00,WeatherDisplay:10.37,2013-01-17 21:05:00,
2013-01-17 16:10:00,41.2,3.1,29.77,SSE,155,6.9,6.9,20,0.00,CLR,,0.00,WeatherDisplay:10.37,2013-01-17 21:10:00,
2013-01-17 16:15:00,41.0,2.9,29.77,SSE,155,6.9,6.9,20,0.00,CLR,,0.00,WeatherDisplay:10.37,2013-01-17 21:15:00,
2013-01-17 16:20:00,41.0,2.9,29.77,SSE,155,6.9,6.9,20,0.00,CLR,,0.00,WeatherDisplay:10.37,2013-01-17 21:20:00,
2013-01-17 16:25:00,41.0,2.9,29.77,SSE,155,6.9,6.9,20,0.00,CLR,,0.00,WeatherDisplay:10.37,2013-01-17 21:25:00,
2013-01-17 16:30:00,41.0,2.9,29.77,SSE,155,6.9,6.9,20,0.00,CLR,,0.00,WeatherDisplay:10.37,2013-01-17 21:30:00,
2013-01-17 16:35:00,41.0,2.9,29.77,SSE,155,6.9,6.9,20,0.00,CLR,,0.00,WeatherDisplay:10.37,2013-01-17 21:35:00,
2013-01-17 16:40:00,40.6,2.6,29.77,SSE,155,6.9,6.9,20,0.00,CLR,,0.00,WeatherDisplay:10.37,2013-01-17 21:40:00,
2013-01-17 16:45:00,40.6,2.6,29.77,SSE,155,6.9,6.9,20,0.00,CLR,,0.00,WeatherDisplay:10.37,2013-01-17 21:45:00,
2013-01-17 16:50:00,41.0,2.9,29.77,SSE,155,6.9,6.9,20,0.00,CLR,,0.00,WeatherDisplay:10.37,2013-01-17 21:50:00,
2013-01-17 16:55:00,40.5,2.5,29.80,SSE,155,6.9,6.9,20,0.00,CLR,,0.00,WeatherDisplay:10.37,2013-01-17 21:55:00,
2013-01-17 17:00:00,40.5,3.5,29.80,SSE,155,6.9,6.9,21,0.00,CLR,,0.00,WeatherDisplay:10.37,2013-01-17 22:00:00,
2013-01-17 17:05:00,40.5,3.5,29.80,SSE,155,6.9,6.9,21,0.00,CLR,,0.00,WeatherDisplay:10.37,2013-01-17 22:05:00,
2013-01-17 17:10:00,40.3,3.4,29.80,SSE,155,6.9,6.9,21,0.00,CLR,,0.00,WeatherDisplay:10.37,2013-01-17 22:10:00,
2013-01-17 17:15:00,40.3,3.4,29.80,SSE,155,6.9,6.9,21,0.00,CLR,,0.00,WeatherDisplay:10.37,2013-01-17 22:15:00,
2013-01-17 17:20:00,40.1,2.2,29.80,SSE,155,6.9,6.9,20,0.00,CLR,,0.00,WeatherDisplay:10.37,2013-01-17 22:20:00,
2013-01-17 17:25:00,39.9,3.1,29.80,SSE,155,6.9,6.9,21,0.00,CLR,,0.00,WeatherDisplay:10.37,2013-01-17 22:25:00,
2013-01-17 17:30:00,39.9,3.1,29.80,SSE,155,6.9,6.9,21,0.00,CLR,,0.00,WeatherDisplay:10.37,2013-01-17 22:30:00,
2013-01-17 17:35:00,39.9,5.0,29.80,SSE,155,6.9,6.9,23,0.00,CLR,,0.00,WeatherDisplay:10.37,2013-01-17 22:35:00,
2013-01-17 17:40:00,39.9,6.9,29.80,SSE,155,6.9,6.9,25,0.00,CLR,,0.00,WeatherDisplay:10.37,2013-01-17 22:40:00,
2013-01-17 17:45:00,39.9,6.9,29.80,SSE,155,6.9,6.9,25,0.00,CLR,,0.00,WeatherDisplay:10.37,2013-01-17 22:45:00,
2013-01-17 17:50:00,39.7,4.9,29.80,SSE,155,6.9,6.9,23,0.00,CLR,,0.00,WeatherDisplay:10.37,2013-01-17 22:50:00,
2013-01-17 17:55:00,39.7,4.9,29.80,SSE,155,6.9,6.9,23,0.00,CLR,,0.00,WeatherDisplay:10.37,2013-01-17 22:55:00,
2013-01-17 18:00:00,39.7,4.9,29.80,SSE,155,6.9,6.9,23,0.00,CLR,,0.00,WeatherDisplay:10.37,2013-01-17 23:00:00,
2013-01-17 18:05:00,39.7,4.9,29.80,SSE,155,6.9,6.9,23,0.00,CLR,,0.00,WeatherDisplay:10.37,2013-01-17 23:05:00,
2013-01-17 18:10:00,39.7,4.9,29.80,SSE,155,6.9,6.9,23,0.00,CLR,,0.00,WeatherDisplay:10.37,2013-01-17 23:10:00,
2013-01-17 18:15:00,39.7,4.9,29.80,SSE,155,6.9,6.9,23,0.00,CLR,,0.00,WeatherDisplay:10.37,2013-01-17 23:15:00,
2013-01-17 18:20:00,39.7,4.9,29.80,SSE,155,6.9,6.9,23,0.00,CLR,,0.00,WeatherDisplay:10.37,2013-01-17 23:20:00,
2013-01-17 18:25:00,39.7,4.9,29.80,SSE,155,6.9,6.9,23,0.00,CLR,,0.00,WeatherDisplay:10.37,2013-01-17 23:25:00,
2013-01-17 18:30:00,39.7,4.9,29.80,SSE,155,6.9,6.9,23,0.00,CLR,,0.00,WeatherDisplay:10.37,2013-01-17 23:30:00,
2013-01-17 18:35:00,39.7,4.9,29.80,SSE,155,6.9,6.9,23,0.00,CLR,,0.00,WeatherDisplay:10.37,2013-01-17 23:35:00,
2013-01-17 18:40:00,39.7,4.9,29.80,SSE,155,6.9,6.9,23,0.00,CLR,,0.00,WeatherDisplay:10.37,2013-01-17 23:40:00,
2013-01-17 18:45:00,39.7,4.9,29.80,SSE,155,6.9,6.9,23,0.00,CLR,,0.00,WeatherDisplay:10.37,2013-01-17 23:45:00,
2013-01-17 18:50:00,39.7,4.9,29.80,SSE,155,6.9,6.9,23,0.00,CLR,,0.00,WeatherDisplay:10.37,2013-01-17 23:50:00,
2013-01-17 18:55:00,39.7,4.9,29.80,SSE,155,6.9,6.9,23,0.00,CLR,,0.00,WeatherDisplay:10.37,2013-01-17 23:55:00,
2013-01-17 19:00:00,39.4,6.4,29.80,SSE,155,6.9,6.9,25,0.00,CLR,,0.00,WeatherDisplay:10.37,2013-01-18 00:00:00,
2013-01-17 19:06:00,39.4,6.4,29.80,SSE,155,6.9,6.9,25,0.00,CLR,,0.00,WeatherDisplay:10.37,2013-01-18 00:06:00,
2013-01-17 19:11:00,39.4,6.4,29.80,SSE,155,6.9,6.9,25,0.00,CLR,,0.00,WeatherDisplay:10.37,2013-01-18 00:11:00,
2013-01-17 19:16:00,39.4,6.4,29.80,SSE,155,6.9,6.9,25,0.00,CLR,,0.00,WeatherDisplay:10.37,2013-01-18 00:16:00,
2013-01-17 19:21:00,39.4,6.4,29.80,SSE,155,6.9,6.9,25,0.00,CLR,,0.00,WeatherDisplay:10.37,2013-01-18 00:21:00,
2013-01-17 19:26:00,39.4,7.3,29.80,SSE,155,6.9,6.9,26,0.00,CLR,,0.00,WeatherDisplay:10.37,2013-01-18 00:26:00,
2013-01-17 19:31:00,39.4,7.3,29.80,SSE,155,6.9,6.9,26,0.00,CLR,,0.00,WeatherDisplay:10.37,2013-01-18 00:31:00,
2013-01-17 19:36:00,39.4,7.3,29.80,SSE,155,6.9,6.9,26,0.00,CLR,,0.00,WeatherDisplay:10.37,2013-01-18 00:36:00,
2013-01-17 19:41:00,39.4,7.3,29.80,SSE,155,6.9,6.9,26,0.00,CLR,,0.00,WeatherDisplay:10.37,2013-01-18 00:41:00,
2013-01-17 19:46:00,39.0,7.0,29.80,SSE,155,6.9,6.9,26,0.00,CLR,,0.00,WeatherDisplay:10.37,2013-01-18 00:46:00,
2013-01-17 19:51:00,39.0,7.0,29.80,SSE,155,6.9,6.9,26,0.00,CLR,,0.00,WeatherDisplay:10.37,2013-01-18 00:51:00,
2013-01-17 19:56:00,39.0,7.0,29.80,SSE,155,6.9,6.9,26,0.00,CLR,,0.00,WeatherDisplay:10.37,2013-01-18 00:56:00,
2013-01-17 20:01:00,39.0,7.0,29.80,SSE,155,6.9,6.9,26,0.00,CLR,,0.00,WeatherDisplay:10.37,2013-01-18 01:01:00,
2013-01-17 20:06:00,39.0,7.0,29.80,SSE,155,6.9,6.9,26,0.00,CLR,,0.00,WeatherDisplay:10.37,2013-01-18 01:06:00,
2013-01-17 20:11:00,39.0,7.0,29.80,SSE,155,6.9,6.9,26,0.00,CLR,,0.00,WeatherDisplay:10.37,2013-01-18 01:11:00,
2013-01-17 20:16:00,39.0,7.0,29.80,SSE,155,6.9,6.9,26,0.00,CLR,,0.00,WeatherDisplay:10.37,2013-01-18 01:16:00,
2013-01-17 20:21:00,39.0,7.0,29.80,SSE,155,6.9,6.9,26,0.00,CLR,,0.00,WeatherDisplay:10.37,2013-01-18 01:21:00,
2013-01-17 20:26:00,39.0,7.0,29.80,SSE,155,6.9,6.9,26,0.00,CLR,,0.00,WeatherDisplay:10.37,2013-01-18 01:26:00,
2013-01-17 20:31:00,38.8,6.8,29.80,SSE,155,6.9,6.9,26,0.00,CLR,,0.00,WeatherDisplay:10.37,2013-01-18 01:31:00,
2013-01-17 20:36:00,38.8,6.8,29.80,SSE,155,6.9,6.9,26,0.00,CLR,,0.00,WeatherDisplay:10.37,2013-01-18 01:36:00,
2013-01-17 20:42:00,39.0,8.6,29.80,SSE,155,6.9,6.9,28,0.00,CLR,,0.00,WeatherDisplay:10.37,2013-01-18 01:42:00,
2013-01-17 20:47:00,39.0,8.6,29.77,SSE,155,6.9,6.9,28,0.00,CLR,,0.00,WeatherDisplay:10.37,2013-01-18 01:47:00,
2013-01-17 20:52:00,39.0,8.6,29.77,SSE,155,6.9,6.9,28,0.00,CLR,,0.00,WeatherDisplay:10.37,2013-01-18 01:52:00,
2013-01-17 20:57:00,39.0,8.6,29.77,SSE,155,6.9,6.9,28,0.00,CLR,,0.00,WeatherDisplay:10.37,2013-01-18 01:57:00,
2013-01-17 21:02:00,39.0,8.6,29.77,SSE,155,6.9,6.9,28,0.00,CLR,,0.00,WeatherDisplay:10.37,2013-01-18 02:02:00,
2013-01-17 21:07:00,39.0,8.6,29.77,SSE,155,6.9,6.9,28,0.00,CLR,,0.00,WeatherDisplay:10.37,2013-01-18 02:07:00,
2013-01-17 21:13:00,38.7,8.3,29.77,SSE,155,6.9,6.9,28,0.00,CLR,,0.00,WeatherDisplay:10.37,2013-01-18 02:13:00,
2013-01-17 21:18:00,38.7,8.3,29.77,SSE,155,6.9,6.9,28,0.00,CLR,,0.00,WeatherDisplay:10.37,2013-01-18 02:18:00,
2013-01-17 21:23:00,38.7,8.3,29.77,SSE,155,6.9,6.9,28,0.00,CLR,,0.00,WeatherDisplay:10.37,2013-01-18 02:23:00,
2013-01-17 21:29:00,38.7,8.3,29.77,SSE,155,6.9,6.9,28,0.00,CLR,,0.00,WeatherDisplay:10.37,2013-01-18 02:29:00,
2013-01-17 21:35:00,37.8,9.1,29.77,SSE,155,6.9,6.9,30,0.00,CLR,,0.00,WeatherDisplay:10.37,2013-01-18 02:35:00,
2013-01-17 21:40:00,37.8,9.1,29.77,SSE,155,6.9,6.9,30,0.00,CLR,,0.00,WeatherDisplay:10.37,2013-01-18 02:40:00,
2013-01-17 21:45:00,37.8,9.1,29.77,SSE,155,6.9,6.9,30,0.00,CLR,,0.00,WeatherDisplay:10.37,2013-01-18 02:45:00,
2013-01-17 21:50:00,37.8,9.1,29.77,SSE,155,6.9,6.9,30,0.00,CLR,,0.00,WeatherDisplay:10.37,2013-01-18 02:50:00,
2013-01-17 21:55:00,37.8,9.1,29.77,SSE,155,6.9,6.9,30,0.00,CLR,,0.00,WeatherDisplay:10.37,2013-01-18 02:55:00,
2013-01-17 22:00:00,37.8,9.1,29.77,SSE,155,6.9,6.9,30,0.00,CLR,,0.00,WeatherDisplay:10.37,2013-01-18 03:00:00,
2013-01-17 22:05:00,36.5,5.6,29.77,SSE,155,6.9,6.9,27,0.00,CLR,,0.00,WeatherDisplay:10.37,2013-01-18 03:05:00,
2013-01-17 22:10:00,36.5,5.6,29.77,SSE,155,6.9,6.9,27,0.00,CLR,,0.00,WeatherDisplay:10.37,2013-01-18 03:10:00,
2013-01-17 22:16:00,36.5,5.6,29.77,SSE,155,6.9,6.9,27,0.00,CLR,,0.00,WeatherDisplay:10.37,2013-01-18 03:16:00,
2013-01-17 22:22:00,36.5,5.6,29.77,SSE,155,6.9,6.9,27,0.00,CLR,,0.00,WeatherDisplay:10.37,2013-01-18 03:22:00,
2013-01-17 22:28:00,36.5,5.6,29.74,SSE,155,6.9,6.9,27,0.00,CLR,,0.00,WeatherDisplay:10.37,2013-01-18 03:28:00,
2013-01-17 22:33:00,36.5,5.6,29.74,SSE,155,6.9,6.9,27,0.00,CLR,,0.00,WeatherDisplay:10.37,2013-01-18 03:33:00,
2013-01-17 22:39:00,36.5,5.6,29.74,SSE,155,6.9,6.9,27,0.00,CLR,,0.00,WeatherDisplay:10.37,2013-01-18 03:39:00,
2013-01-17 22:45:00,36.5,5.6,29.74,SSE,155,6.9,6.9,27,0.00,CLR,,0.00,WeatherDisplay:10.37,2013-01-18 03:45:00,
2013-01-17 22:51:00,36.5,5.6,29.74,SSE,155,6.9,6.9,27,0.00,CLR,,0.00,WeatherDisplay:10.37,2013-01-18 03:51:00,
2013-01-17 22:56:00,36.5,5.6,29.77,SSE,155,6.9,6.9,27,0.00,CLR,,0.00,WeatherDisplay:10.37,2013-01-18 03:56:00,
2013-01-17 23:02:00,36.5,5.6,29.74,SSE,155,6.9,6.9,27,0.00,CLR,,0.00,WeatherDisplay:10.37,2013-01-18 04:02:00,
2013-01-17 23:07:00,36.5,5.6,29.74,SSE,155,6.9,6.9,27,0.00,CLR,,0.00,WeatherDisplay:10.37,2013-01-18 04:07:00,
2013-01-17 23:12:00,36.5,5.6,29.77,SSE,155,6.9,6.9,27,0.00,CLR,,0.00,WeatherDisplay:10.37,2013-01-18 04:12:00,
2013-01-17 23:17:00,36.5,5.6,29.77,SSE,155,6.9,6.9,27,0.00,CLR,,0.00,WeatherDisplay:10.37,2013-01-18 04:17:00,
2013-01-17 23:23:00,36.5,5.6,29.77,SSE,155,6.9,6.9,27,0.00,CLR,,0.00,WeatherDisplay:10.37,2013-01-18 04:23:00,
2013-01-17 23:28:00,36.5,5.6,29.77,SSE,155,6.9,6.9,27,0.00,CLR,,0.00,WeatherDisplay:10.37,2013-01-18 04:28:00,
2013-01-17 23:34:00,36.5,5.6,29.77,SSE,155,6.9,6.9,27,0.00,CLR,,0.00,WeatherDisplay:10.37,2013-01-18 04:34:00,
2013-01-17 23:39:00,36.5,5.6,29.77,SSE,155,6.9,6.9,27,0.00,CLR,,0.00,WeatherDisplay:10.37,2013-01-18 04:39:00,
2013-01-17 23:45:00,36.5,5.6,29.74,SSE,155,6.9,6.9,27,0.00,CLR,,0.00,WeatherDisplay:10.37,2013-01-18 04:45:00,
2013-01-17 23:50:00,36.5,5.6,29.77,SSE,155,6.9,6.9,27,0.00,CLR,,0.00,WeatherDisplay:10.37,2013-01-18 04:50:00,
2013-01-17 23:55:00,36.5,5.6,29.77,SSE,155,6.9,6.9,27,0.00,CLR,,0.00,WeatherDisplay:10.37,2013-01-18 04:55:00,